DW3370 Weather Reports


time (UTC)temp
F
wind
direction
speed
knots
gust
knots
rain 1hr
in
rain 24hr
in
rain mn
in
humidity
%
barometer
mb
20260505051552 61 0 0.9 2.6 0.00 0.00 0.00 66 1010.3
20260505041556 61 235 1.7 3.5 0.00 0.00 0.00 62 1010.2
20260505040101 61 260 1.7 6.1 0.00 0.00 0.00 61 1010.1
20260505034554 60 0 0.0 3.5 0.00 0.00 0.00 63 1010.2
20260505033100 61 241 2.6 5.2 0.00 0.00 0.00 60 1009.9
20260505031555 62 231 1.7 6.1 0.00 0.00 0.00 58 1010.1
20260505030054 62 250 2.6 7.0 0.00 0.00 0.00 58 1009.9
20260505024553 62 220 1.7 5.2 0.00 0.00 0.00 57 1010.1
20260505023052 62 246 1.7 4.3 0.00 0.00 0.00 57 1010.2
20260505021553 62 212 2.6 6.1 0.00 0.00 0.00 57 1010.1
20260505020052 63 224 2.6 5.2 0.00 0.00 0.00 54 1009.9
20260505014550 62 235 1.7 4.3 0.00 0.00 0.00 57 1009.9
20260505013052 63 236 1.7 4.3 0.00 0.00 0.00 54 1009.9
20260505011557 64 252 3.5 7.0 0.00 0.00 0.00 51 1009.5
20260505010100 65 237 1.7 6.1 0.00 0.00 0.00 50 1009.4
20260505004553 65 194 2.6 6.1 0.00 0.00 0.00 50 1009.3
20260505003053 65 236 2.6 5.2 0.00 0.00 0.00 49 1009.2
20260505001554 66 213 1.7 6.1 0.00 0.00 0.00 47 1009.3
20260505000101 67 259 3.5 7.0 0.00 0.00 0.00 45 1009.1
20260504234604 68 202 2.6 6.1 0.00 0.00 0.00 43 1009.0
20260504233051 69 237 2.6 7.0 0.00 0.00 0.00 42 1008.9
20260504231552 70 267 2.6 7.0 0.00 0.00 0.00 42 1009.0
20260504230054 70 248 2.6 7.8 0.00 0.00 0.00 41 1009.0
20260504224554 70 196 4.3 8.7 0.00 0.00 0.00 42 1009.1
20260504223055 71 221 3.5 7.8 0.00 0.00 0.00 41 1009.0
20260504221555 71 256 5.2 10.4 0.00 0.00 0.00 42 1008.9
20260504214551 72 246 5.2 10.4 0.00 0.00 0.00 41 1009.1
20260504213109 72 247 7.0 11.3 0.00 0.00 0.00 40 1009.0
20260504211549 72 229 6.1 10.4 0.00 0.00 0.00 40 1009.1
20260504210059 73 271 3.5 12.2 0.00 0.00 0.00 42 1009.0
20260504204601 72 229 6.1 13.9 0.00 0.00 0.00 41 1009.1
20260504203051 72 259 4.3 9.6 0.00 0.00 0.00 41 1009.2
20260504201551 72 254 3.5 9.6 0.00 0.00 0.00 41 1009.6
20260504200053 72 177 5.2 11.3 0.00 0.00 0.00 40 1009.7
20260504194556 72 224 3.5 10.4 0.00 0.00 0.00 41 1010.0
20260504193104 71 263 6.1 12.2 0.00 0.00 0.00 41 1010.4
20260504191553 71 270 6.1 12.2 0.00 0.00 0.00 41 1010.7
20260504190105 70 286 7.0 13.0 0.00 0.00 0.00 42 1010.9
20260504184553 71 250 5.2 10.4 0.00 0.00 0.00 43 1011.1
20260504183100 70 237 6.1 13.0 0.00 0.00 0.00 43 1011.4
20260504181553 70 261 4.3 14.8 0.00 0.00 0.00 46 1011.5
20260504180132 69 265 5.2 12.2 0.00 0.00 0.00 44 1011.5
20260504174551 69 180 6.1 9.6 0.00 0.00 0.00 48 1011.6
20260504173052 69 230 2.6 10.4 0.00 0.00 0.00 46 1011.9
20260504171553 68 263 7.0 12.2 0.00 0.00 0.00 41 1011.9
20260504120149 47 0 0.0 0.0 0.00 0.00 0.00 79 1013.9
20260504100111 36 0 0.0 0.0 0.00 0.00 0.00 89 1014.2
20260504081553 35 0 0.0 0.0 0.00 0.00 0.00 90 1014.6
20260504060107 35 0 0.0 0.0 0.00 0.00 0.00 87 1014.9